Regional Weather Roundup
Issued by NWS

Home | Current Version | Previous Version | Graphics & Text | Print | Product List | Glossary On
Versions: 1 2 3 4 5 6 7 8 9 10 11 12 13 14 15 16 17 18 19 20 21 22 23 24 25 26 27 28 29 30 31 32 33 34 35 36 37 38 39 40 41 42 43 44 45 46 47 48 49 50
000
ASUS45 KSLC 271010
RWRUT

UTAH REGIONAL WEATHER ROUNDUP
NATIONAL WEATHER SERVICE SALT LAKE CITY UT
400 AM MDT MON APR 27 2015

UTZ001>011-023>025-271100-

NORTHERN UTAH

CITY           SKY/WX    TMP DP  RH WIND       PRES   REMARKS
BRIGHAM CITY   CLEAR     43  28  54 CALM      30.19R
HILL AFB       CLEAR     39  34  82 SE6       30.17S WCI  35
LOGAN          PTCLDY    36  32  85 SW5       30.20R WCI  32
OGDEN          CLEAR     40  34  79 CALM      30.16S
PROVO AIRPORT  PTCLDY    39  32  75 N3        30.15R
SALT LAKE CITY MOCLDY    45  35  68 NW13      30.16R
VERNAL         CLOUDY    46  32  58 CALM      30.07R
WENDOVER       CLEAR     46  12  25 W6        30.20S
HEBER CITY     CLOUDY    41  32  70 E6        30.16R
WEST JORDAN    CLOUDY    45  36  70 NW13      30.17S

$$

UTZ012>022-026-027-271100-

SOUTHERN/CENTRAL UTAH

CITY           SKY/WX    TMP DP  RH WIND       PRES   REMARKS
BLANDING       PTCLDY    44  36  74 N6        30.03R
BRYCE CANYON   CLEAR     29  24  82 N8        30.12R WCI  21
CEDAR CITY     CLEAR     31  27  85 NW6       30.13R WCI  25
DELTA          CLOUDY    42  31  66 N7        30.16S
HANKSVILLE     PTCLDY    46  32  57 NW6       30.03S
MILFORD        CLEAR     32  28  85 N7        30.15R WCI  26
MOAB/CYNLANDS  CLOUDY    49  38  65 CALM      29.98R
PRICE          NOT AVBL
ST GEORGE      MOSUNNY   54  28  37 CALM      30.03R
KANAB          CLEAR     45  28  53 N9        30.08R

$$

REGIONAL REPORTS     COLORADO/ARIZONA

CITY           SKY/WX    TMP DP  RH WIND       PRES   REMARKS
CRAIG, CO      LGT RAIN  40  38  93 SW3       30.08R FOG
GRAND JUNCTION MOCLDY    45  40  82 N5        30.00R
RIFLE          CLOUDY    41  37  86 NE5       30.04R
MONTROSE       CLOUDY    43  39  86 CALM      30.04R
CORTEZ         CLEAR     35  33  92 E3        29.96R
PAGE, AZ       PTCLDY    50  28  42 W5        29.99S
GRAND CANYON   CLEAR     30  25  81 NE7       30.04R WCI  23
KINGMAN        CLEAR     37  27  67 CALM      29.99R
FLAGSTAFF      CLEAR     30  26  85 CALM      30.00F

$$

REGIONAL REPORTS    NEVADA/IDAHO/WYOMING

CITY           SKY/WX    TMP DP  RH WIND       PRES   REMARKS
LAS VEGAS, NV  PTCLDY    61  17  18 NW21G29   29.98F
ELY            CLEAR     31  20  63 N7        30.23R WCI  24
ELKO           CLEAR     29  22  75 SE3       30.26R
POCATELLO, ID  CLEAR     37  29  72 SW6       30.25R WCI  32
BURLEY         CLEAR     34  21  59 W3        30.22R
EVANSTON, WY   CLOUDY    34  31  88 NW5       30.18S WCI  30
ROCK SPRINGS   LGT RAIN  36  34  92 NE6       30.16R WCI  31
KEMMERER       DRIZZLE   34  34 100 CALM      30.18S

$$



USA.gov is the U.S. government's official web portal to all federal, state and local government web resources and services.